EVA620 KSFO-KLAX

Flight info

Callsign EVA620
Flight time 0h 52m
Altitude 33000
Route WESLA5 SUSEY EBAYE BURGL IRNMN2
Aircraft B77L/H-SDE1E2E3FGHIJ2J3J4J5M1RWXY/LB1D1

Departure

Time 2026-04-22 01:36
Airport San Francisco International Airport (KSFO)

Arrival

Time 2026-04-22 02:29
Airport Los Angeles International Airport (KLAX)
Time Latitude Longitude Altitude Speed Heading
2026-04-22 01:20 37.63829 -122.38950 26 ft 0 kts 91°
2026-04-22 01:27 37.63829 -122.38963 26 ft 4 kts 91°
2026-04-22 01:27 37.63831 -122.38997 26 ft 4 kts 101°
2026-04-22 01:27 37.63839 -122.39025 26 ft 1 kts 123°
2026-04-22 01:27 37.63839 -122.39026 26 ft 0 kts 123°
2026-04-22 01:29 37.63819 -122.39009 26 ft 12 kts 155°
2026-04-22 01:29 37.63713 -122.38963 26 ft 14 kts 137°
2026-04-22 01:29 37.63669 -122.38902 26 ft 10 kts 137°
2026-04-22 01:30 37.63579 -122.38829 26 ft 15 kts 150°
2026-04-22 01:30 37.63488 -122.38807 26 ft 12 kts 217°
2026-04-22 01:30 37.63437 -122.38940 26 ft 21 kts 258°
2026-04-22 01:30 37.63373 -122.39124 26 ft 27 kts 237°
2026-04-22 01:31 37.63202 -122.39144 26 ft 22 kts 202°
2026-04-22 01:31 37.63071 -122.39250 26 ft 28 kts 163°
2026-04-22 01:31 37.62912 -122.39062 26 ft 37 kts 118°
2026-04-22 01:31 37.62794 -122.38779 26 ft 35 kts 118°
2026-04-22 01:32 37.62681 -122.38510 26 ft 34 kts 117°
2026-04-22 01:32 37.62572 -122.38253 26 ft 32 kts 116°
2026-04-22 01:32 37.62471 -122.38004 26 ft 31 kts 117°
2026-04-22 01:32 37.62370 -122.37767 26 ft 30 kts 117°
2026-04-22 01:33 37.62272 -122.37535 26 ft 30 kts 116°
2026-04-22 01:33 37.62177 -122.37301 26 ft 30 kts 119°
2026-04-22 01:33 37.62080 -122.37069 26 ft 30 kts 116°
2026-04-22 01:33 37.61980 -122.36838 25 ft 30 kts 119°
2026-04-22 01:34 37.61883 -122.36606 26 ft 30 kts 120°
2026-04-22 01:34 37.61785 -122.36374 26 ft 30 kts 115°
2026-04-22 01:34 37.61689 -122.36141 26 ft 30 kts 121°
2026-04-22 01:34 37.61589 -122.35910 26 ft 31 kts 118°
2026-04-22 01:35 37.61512 -122.35725 26 ft 14 kts 123°
2026-04-22 01:35 37.61414 -122.35694 26 ft 22 kts 204°
2026-04-22 01:35 37.61437 -122.35920 26 ft 50 kts 298°
2026-04-22 01:35 37.61706 -122.36585 27 ft 116 kts 298°
2026-04-22 01:36 37.62184 -122.37701 53 ft 168 kts 296°
2026-04-22 01:36 37.62738 -122.39047 608 ft 170 kts 294°
2026-04-22 01:36 37.63252 -122.40314 1447 ft 167 kts 295°
2026-04-22 01:36 37.63819 -122.41686 2012 ft 182 kts 295°
2026-04-22 01:37 37.64435 -122.43188 2389 ft 212 kts 295°
2026-04-22 01:37 37.65136 -122.44890 3144 ft 222 kts 295°
2026-04-22 01:37 37.65858 -122.46631 4086 ft 225 kts 295°
2026-04-22 01:37 37.66577 -122.48391 5023 ft 227 kts 290°
2026-04-22 01:38 37.66814 -122.50413 5527 ft 245 kts 258°
2026-04-22 01:38 37.66089 -122.52369 6436 ft 253 kts 230°
2026-04-22 01:38 37.64654 -122.53688 7317 ft 262 kts 203°
2026-04-22 01:38 37.62832 -122.53968 8297 ft 272 kts 175°
2026-04-22 01:39 37.60983 -122.53335 9192 ft 280 kts 163°
2026-04-22 01:39 37.59161 -122.52423 10117 ft 285 kts 161°
2026-04-22 01:39 37.57288 -122.51458 10749 ft 301 kts 162°
2026-04-22 01:39 37.55244 -122.50444 10983 ft 330 kts 162°
2026-04-22 01:40 37.53001 -122.49367 11243 ft 358 kts 162°
2026-04-22 01:40 37.50634 -122.48245 11963 ft 368 kts 162°
2026-04-22 01:40 37.48346 -122.46732 12612 ft 382 kts 144°
2026-04-22 01:40 37.46507 -122.44293 13377 ft 388 kts 134°
2026-04-22 01:41 37.44700 -122.41714 14162 ft 396 kts 135°
2026-04-22 01:41 37.42841 -122.39137 15010 ft 401 kts 135°
2026-04-22 01:41 37.40931 -122.36523 15740 ft 409 kts 136°
2026-04-22 01:41 37.38993 -122.33885 16617 ft 412 kts 136°
2026-04-22 01:42 37.37049 -122.31243 17663 ft 412 kts 136°
2026-04-22 01:42 37.35756 -122.29488 18243 ft 415 kts 136°
2026-04-22 01:42 37.33776 -122.26803 18865 ft 423 kts 136°
2026-04-22 01:42 37.31749 -122.24060 19376 ft 433 kts 136°
2026-04-22 01:43 37.28995 -122.20341 20080 ft 445 kts 137°
2026-04-22 01:43 37.27557 -122.18400 20311 ft 455 kts 137°
2026-04-22 01:43 37.25371 -122.15455 20733 ft 467 kts 138°
2026-04-22 01:43 37.23137 -122.12438 21245 ft 476 kts 138°
2026-04-22 01:44 37.20869 -122.09373 21791 ft 484 kts 138°
2026-04-22 01:44 37.18567 -122.06256 22454 ft 488 kts 138°
2026-04-22 01:44 37.16249 -122.03146 23261 ft 490 kts 139°
2026-04-22 01:44 37.13898 -121.99985 23707 ft 500 kts 140°
2026-04-22 01:45 37.11486 -121.96756 23867 ft 515 kts 140°
2026-04-22 01:45 37.09020 -121.93457 24249 ft 522 kts 140°
2026-04-22 01:45 37.06543 -121.90134 24974 ft 520 kts 140°
2026-04-22 01:45 37.04109 -121.86857 25661 ft 521 kts 140°
2026-04-22 01:46 37.01631 -121.83526 26136 ft 527 kts 140°
2026-04-22 01:46 36.99101 -121.80153 26405 ft 535 kts 140°
2026-04-22 01:46 36.96537 -121.76739 26901 ft 540 kts 140°
2026-04-22 01:46 36.93964 -121.73310 27472 ft 542 kts 140°
2026-04-22 01:47 36.91374 -121.69857 27995 ft 546 kts 140°
2026-04-22 01:47 36.88770 -121.66387 28470 ft 550 kts 140°
2026-04-22 01:47 36.86134 -121.62893 28905 ft 554 kts 141°
2026-04-22 01:47 36.83492 -121.59399 29597 ft 551 kts 141°
2026-04-22 01:48 36.80894 -121.55928 30512 ft 544 kts 141°
2026-04-22 01:48 36.78321 -121.52494 31201 ft 540 kts 141°
2026-04-22 01:48 36.75764 -121.49094 31850 ft 537 kts 141°
2026-04-22 01:48 36.73202 -121.45710 32378 ft 536 kts 141°
2026-04-22 01:49 36.70640 -121.42329 32885 ft 535 kts 141°
2026-04-22 01:49 36.68082 -121.38958 33100 ft 537 kts 141°
2026-04-22 01:49 36.62973 -121.32228 33071 ft 532 kts 141°
2026-04-22 01:50 36.57890 -121.25546 33072 ft 532 kts 141°
2026-04-22 01:50 36.52797 -121.18862 33009 ft 533 kts 141°
2026-04-22 01:51 36.47704 -121.12191 33066 ft 532 kts 141°
2026-04-22 01:51 36.42614 -121.05534 33063 ft 531 kts 141°
2026-04-22 01:52 36.37735 -120.98683 33091 ft 534 kts 137°
2026-04-22 01:52 36.32943 -120.91640 33080 ft 534 kts 138°
2026-04-22 01:53 36.28120 -120.84631 33075 ft 534 kts 138°
2026-04-22 01:53 36.23267 -120.77689 33044 ft 532 kts 138°
2026-04-22 01:54 36.18427 -120.70777 33061 ft 530 kts 138°
2026-04-22 01:54 36.13610 -120.63914 33076 ft 528 kts 138°
2026-04-22 01:55 36.08788 -120.57062 33019 ft 528 kts 138°
2026-04-22 01:55 36.03980 -120.50237 33069 ft 526 kts 138°
2026-04-22 01:56 35.99173 -120.43424 33098 ft 526 kts 138°
2026-04-22 01:56 35.94359 -120.36622 33097 ft 526 kts 139°
2026-04-22 01:57 35.89527 -120.29856 33083 ft 522 kts 141°
2026-04-22 01:57 35.84147 -120.24048 33086 ft 508 kts 152°
2026-04-22 01:58 35.78235 -120.19492 33087 ft 500 kts 158°
2026-04-22 01:58 35.72261 -120.15069 33078 ft 501 kts 157°
2026-04-22 01:59 35.66349 -120.10617 33090 ft 502 kts 157°
2026-04-22 01:59 35.60401 -120.06125 33100 ft 501 kts 157°
2026-04-22 02:00 35.54463 -120.01640 33086 ft 500 kts 157°
2026-04-22 02:00 35.48533 -119.97171 33094 ft 500 kts 157°
2026-04-22 02:01 35.42598 -119.92709 33079 ft 500 kts 157°
2026-04-22 02:01 35.36664 -119.88253 33075 ft 499 kts 156°
2026-04-22 02:02 35.33737 -119.86053 33062 ft 488 kts 157°
2026-04-22 02:02 35.30866 -119.83897 32853 ft 481 kts 157°
2026-04-22 02:02 35.28032 -119.81749 32451 ft 478 kts 155°
2026-04-22 02:02 35.25317 -119.79405 32004 ft 478 kts 152°
2026-04-22 02:03 35.22689 -119.76910 31565 ft 476 kts 150°
2026-04-22 02:03 35.20116 -119.74398 31082 ft 472 kts 149°
2026-04-22 02:03 35.17556 -119.71908 30674 ft 468 kts 150°
2026-04-22 02:03 35.15006 -119.69467 30247 ft 464 kts 150°
2026-04-22 02:04 35.09927 -119.64701 29265 ft 457 kts 151°
2026-04-22 02:04 35.07412 -119.62363 28834 ft 452 kts 151°
2026-04-22 02:04 35.04917 -119.60047 28400 ft 448 kts 151°
2026-04-22 02:05 35.02479 -119.57785 27940 ft 444 kts 151°
2026-04-22 02:05 35.00034 -119.55517 27540 ft 440 kts 151°
2026-04-22 02:05 34.97605 -119.53264 27127 ft 437 kts 152°
2026-04-22 02:05 34.95194 -119.51027 26694 ft 434 kts 152°
2026-04-22 02:06 34.92793 -119.48804 26269 ft 432 kts 152°
2026-04-22 02:06 34.90405 -119.46604 25845 ft 429 kts 152°
2026-04-22 02:06 34.88011 -119.44449 25423 ft 427 kts 153°
2026-04-22 02:06 34.85625 -119.42326 24965 ft 424 kts 153°
2026-04-22 02:07 34.83244 -119.40206 24565 ft 422 kts 152°
2026-04-22 02:07 34.80879 -119.38097 24166 ft 420 kts 152°
2026-04-22 02:07 34.78523 -119.35995 23736 ft 419 kts 152°
2026-04-22 02:07 34.76173 -119.33906 23265 ft 418 kts 152°
2026-04-22 02:08 34.73834 -119.31820 22800 ft 416 kts 153°
2026-04-22 02:08 34.71496 -119.29770 22360 ft 414 kts 153°
2026-04-22 02:08 34.69163 -119.27736 21928 ft 411 kts 153°
2026-04-22 02:08 34.66848 -119.25719 21504 ft 409 kts 153°
2026-04-22 02:09 34.64546 -119.23709 21094 ft 407 kts 153°
2026-04-22 02:09 34.62251 -119.21723 20667 ft 404 kts 154°
2026-04-22 02:09 34.59957 -119.19757 20255 ft 403 kts 154°
2026-04-22 02:09 34.57674 -119.17797 19842 ft 401 kts 154°
2026-04-22 02:10 34.55406 -119.15834 19440 ft 400 kts 153°
2026-04-22 02:10 34.53162 -119.13843 19030 ft 400 kts 153°
2026-04-22 02:10 34.50918 -119.11849 18601 ft 400 kts 153°
2026-04-22 02:10 34.48670 -119.09853 18159 ft 400 kts 152°
2026-04-22 02:11 34.46425 -119.07863 17683 ft 399 kts 152°
2026-04-22 02:11 34.44178 -119.05882 17235 ft 398 kts 152°
2026-04-22 02:11 34.41944 -119.03931 16879 ft 395 kts 152°
2026-04-22 02:11 34.39713 -119.02000 16460 ft 393 kts 153°
2026-04-22 02:12 34.37497 -119.00085 16051 ft 391 kts 152°
2026-04-22 02:12 34.35299 -118.98187 15688 ft 387 kts 152°
2026-04-22 02:12 34.33122 -118.96283 15351 ft 385 kts 151°
2026-04-22 02:12 34.30980 -118.94336 14984 ft 382 kts 150°
2026-04-22 02:13 34.28895 -118.92426 14665 ft 365 kts 150°
2026-04-22 02:13 34.26927 -118.90622 14135 ft 347 kts 151°
2026-04-22 02:13 34.25046 -118.88908 13730 ft 336 kts 151°
2026-04-22 02:13 34.23185 -118.87214 13366 ft 342 kts 150°
2026-04-22 02:14 34.21278 -118.85467 12994 ft 345 kts 150°
2026-04-22 02:14 34.19379 -118.83721 12663 ft 342 kts 150°
2026-04-22 02:14 34.17496 -118.81989 12289 ft 337 kts 150°
2026-04-22 02:14 34.15678 -118.80260 12145 ft 328 kts 147°
2026-04-22 02:15 34.13989 -118.78446 11859 ft 324 kts 145°
2026-04-22 02:15 34.12310 -118.76588 11258 ft 329 kts 143°
2026-04-22 02:15 34.10637 -118.74729 10977 ft 323 kts 144°
2026-04-22 02:15 34.09002 -118.72926 10712 ft 316 kts 144°
2026-04-22 02:16 34.07370 -118.71151 10315 ft 312 kts 144°
2026-04-22 02:16 34.05771 -118.69423 10042 ft 308 kts 144°
2026-04-22 02:16 34.04198 -118.67701 9699 ft 303 kts 141°
2026-04-22 02:16 34.03018 -118.65606 9381 ft 305 kts 115°
2026-04-22 02:17 34.02602 -118.63123 9107 ft 300 kts 98°
2026-04-22 02:17 34.02410 -118.60648 8813 ft 294 kts 99°
2026-04-22 02:17 34.02192 -118.58218 8536 ft 290 kts 99°
2026-04-22 02:17 34.01966 -118.55807 8265 ft 289 kts 99°
2026-04-22 02:18 34.01741 -118.53398 8002 ft 289 kts 99°
2026-04-22 02:18 34.01593 -118.51813 7814 ft 286 kts 99°
2026-04-22 02:18 34.01081 -118.46350 7184 ft 272 kts 97°
2026-04-22 02:19 34.01172 -118.44123 6930 ft 263 kts 80°
2026-04-22 02:19 34.01562 -118.42009 6722 ft 254 kts 77°
2026-04-22 02:19 34.01955 -118.39971 6535 ft 244 kts 78°
2026-04-22 02:19 34.02312 -118.38027 6268 ft 232 kts 78°
2026-04-22 02:20 34.02646 -118.36153 5980 ft 225 kts 80°
2026-04-22 02:20 34.02916 -118.34275 5425 ft 230 kts 85°
2026-04-22 02:20 34.03103 -118.32361 5074 ft 226 kts 85°
2026-04-22 02:20 34.03284 -118.30502 4786 ft 221 kts 85°
2026-04-22 02:21 34.03467 -118.28668 4372 ft 220 kts 84°
2026-04-22 02:21 34.03646 -118.26870 4058 ft 215 kts 84°
2026-04-22 02:21 34.03811 -118.25129 4007 ft 202 kts 85°
2026-04-22 02:21 34.03973 -118.23430 4000 ft 206 kts 84°
2026-04-22 02:22 34.04129 -118.21683 4004 ft 213 kts 84°
2026-04-22 02:22 34.04333 -118.19886 3867 ft 218 kts 81°
2026-04-22 02:22 34.04573 -118.18093 3772 ft 216 kts 79°
2026-04-22 02:22 34.04582 -118.16323 3588 ft 212 kts 112°
2026-04-22 02:23 34.03677 -118.15030 3399 ft 200 kts 158°
2026-04-22 02:23 34.02356 -118.14722 3227 ft 192 kts 184°
2026-04-22 02:23 34.01037 -118.14892 3155 ft 189 kts 195°
2026-04-22 02:23 33.99753 -118.15210 3108 ft 187 kts 197°
2026-04-22 02:24 33.98482 -118.15538 3059 ft 187 kts 197°
2026-04-22 02:24 33.97246 -118.15949 2976 ft 181 kts 214°
2026-04-22 02:24 33.96434 -118.17033 2760 ft 177 kts 252°
2026-04-22 02:24 33.96109 -118.18424 2716 ft 172 kts 257°
2026-04-22 02:25 33.95815 -118.19826 2625 ft 174 kts 256°
2026-04-22 02:25 33.95544 -118.21243 2615 ft 173 kts 261°
2026-04-22 02:25 33.95353 -118.22665 2602 ft 171 kts 263°
2026-04-22 02:25 33.95197 -118.24095 2442 ft 175 kts 264°
2026-04-22 02:26 33.95046 -118.25545 2201 ft 173 kts 263°
2026-04-22 02:26 33.94900 -118.26971 1967 ft 170 kts 263°
2026-04-22 02:26 33.94754 -118.28388 1752 ft 169 kts 264°
2026-04-22 02:26 33.94611 -118.29782 1509 ft 166 kts 263°
2026-04-22 02:27 33.94472 -118.31138 1336 ft 162 kts 262°
2026-04-22 02:27 33.94339 -118.32432 1104 ft 149 kts 263°
2026-04-22 02:27 33.94256 -118.33245 952 ft 146 kts 263°
2026-04-22 02:27 33.94135 -118.34436 728 ft 139 kts 263°
2026-04-22 02:28 33.94016 -118.35559 553 ft 134 kts 263°
2026-04-22 02:28 33.93897 -118.36710 382 ft 143 kts 265°
2026-04-22 02:28 33.93776 -118.37883 201 ft 138 kts 263°
2026-04-22 02:28 33.93664 -118.38979 100 ft 121 kts 263°
2026-04-22 02:29 33.93585 -118.39752 99 ft 53 kts 263°
2026-04-22 02:29 33.93520 -118.40131 101 ft 27 kts 244°
2026-04-22 02:29 33.93436 -118.40178 98 ft 10 kts 137°
2026-04-22 02:29 33.93430 -118.40102 98 ft 10 kts 76°
2026-04-22 02:30 33.93438 -118.40021 101 ft 10 kts 84°
2026-04-22 02:30 33.93452 -118.39864 100 ft 31 kts 84°
2026-04-22 02:30 33.93478 -118.39609 100 ft 30 kts 82°
2026-04-22 02:30 33.93499 -118.39390 98 ft 16 kts 82°
2026-04-22 02:31 33.93514 -118.39253 100 ft 17 kts 82°
2026-04-22 02:31 33.93528 -118.39117 98 ft 15 kts 83°
2026-04-22 02:31 33.93482 -118.39055 98 ft 9 kts 187°
2026-04-22 02:31 33.93416 -118.39059 99 ft 8 kts 181°
2026-04-22 02:32 33.93400 -118.39059 97 ft 0 kts 179°